Location: Meanaryar
(48.4161°N, 4.7315°W)
Time: 16:31:47
(UTC+00:00)

Cosmos 2263 Rocket - Pass Details

Date: 18 September 2020
Orbit: 822 x 850 km, 71.0° (Epoch: 30 October)

Event Time Altitude Azimuth Distance (km) Brightness Sun altitude
Rises 19:30:03 0° 211° (SSW) 3,345 5.5 -11.6°
Reaches altitude 10° 19:32:28 10° 213° (SSW) 2,418 4.8 -12.0°
Maximum altitude 19:38:00 76° 299° (WNW) 854 2.4 -12.8°
Drops below altitude 10° 19:43:37 10° 26° (NNE) 2,446 4.5 -13.7°
Sets 19:46:05 0° 28° (NNE) 3,388 5.2 -14.1°
